When you browse on this site, cookies collect data to enhance your experience and personalize the content and advertising you see.
Visit our Privacy Policy to learn more. By continuing to use the site, you agree to this use of cookies and data.
  • en France
  • Liste des pays
  • À 7 jours
  • Température de l'eau
  • Carte météo
  • Widgets météo
  • user-avatar
    Se connecter

    Météo par heure à Saltyki

    Ce jour, 21 Février, Vendredi

    Heure Température Précipitation Vent Pression Humidité
    00:00 -1°C° 0 mm 2 m/s 750 mmHg 94%
    01:00 -1°C° 0 mm 2 m/s 750 mmHg 94%
    02:00 -1°C° 0 mm 2 m/s 750 mmHg 94%
    03:00 -2°C° 0 mm 2 m/s 750 mmHg 94%
    04:00 -2°C° 0 mm 2 m/s 750 mmHg 94%
    05:00 -2°C° 0 mm 2 m/s 750 mmHg 94%
    06:00 -2°C° 0 mm 2 m/s 750 mmHg 94%
    07:00 -1°C° 0 mm 2 m/s 750 mmHg 94%
    08:00 -1°C° 0 mm 2 m/s 750 mmHg 94%
    15:00 +2°C° 0 mm 2 m/s 750 mmHg 87%
    16:00 +1°C° 0 mm 2 m/s 750 mmHg 88%
    17:00 +1°C° 0 mm 2 m/s 750 mmHg 90%
    18:00 -1°C° 0 mm 2 m/s 750 mmHg 90%
    19:00 -1°C° 0 mm 2 m/s 750 mmHg 90%
    20:00 -1°C° 0 mm 2 m/s 751 mmHg 90%
    21:00 -1°C° 0 mm 2 m/s 751 mmHg 90%
    22:00 -2°C° 0 mm 2 m/s 751 mmHg 90%
    23:00 -2°C° 0 mm 2 m/s 751 mmHg 90%

    Demain, 22 Février, Samedi

    Heure Température Précipitation Vent Pression Humidité
    00:00 -2°C° 0 mm 2 m/s 751 mmHg 91%
    01:00 -2°C° 0 mm 2 m/s 752 mmHg 91%
    02:00 -2°C° 0 mm 2 m/s 752 mmHg 92%
    03:00 -2°C° 0 mm 2 m/s 752 mmHg 92%
    04:00 -2°C° 0 mm 2 m/s 752 mmHg 92%
    05:00 -2°C° 0 mm 2 m/s 752 mmHg 92%
    06:00 -2°C° 0 mm 2 m/s 752 mmHg 92%
    07:00 -2°C° 0 mm 2 m/s 752 mmHg 91%
    08:00 -2°C° 0 mm 2 m/s 753 mmHg 91%
    09:00 -1°C° 0 mm 2 m/s 753 mmHg 87%
    10:00 +1°C° 0 mm 2 m/s 753 mmHg 84%
    11:00 0°C° 0 mm 3 m/s 752 mmHg 80%
    12:00 +1°C° 0 mm 3 m/s 752 mmHg 78%
    13:00 +1°C° 0 mm 3 m/s 752 mmHg 76%
    14:00 +1°C° 0 mm 3 m/s 752 mmHg 74%
    15:00 0°C° 0 mm 3 m/s 751 mmHg 78%
    16:00 0°C° 0 mm 3 m/s 751 mmHg 81%
    17:00 -1°C° 0 mm 3 m/s 750 mmHg 84%
    18:00 -2°C° 0 mm 4 m/s 750 mmHg 83%
    19:00 -2°C° 0 mm 4 m/s 750 mmHg 82%
    20:00 -4°C° 0 mm 5 m/s 749 mmHg 81%
    21:00 -4°C° 0 mm 5 m/s 748 mmHg 82%
    22:00 -3°C° 0 mm 6 m/s 748 mmHg 82%
    23:00 -3°C° 0 mm 7 m/s 747 mmHg 82%

    Après-demain, 23 Février, Dimanche

    Heure Température Précipitation Vent Pression Humidité
    00:00 -3°C° 0 mm 7 m/s 746 mmHg 82%
    01:00 -4°C° 0 mm 8 m/s 744 mmHg 81%
    02:00 -4°C° 0 mm 8 m/s 743 mmHg 81%
    03:00 -4°C° 0 mm 9 m/s 742 mmHg 82%
    04:00 -4°C° 0 mm 9 m/s 741 mmHg 83%
    05:00 -4°C° 0 mm 10 m/s 740 mmHg 84%
    06:00 -4°C° 0.7 mm 10 m/s 739 mmHg 88%
    07:00 -4°C° 0.7 mm 10 m/s 738 mmHg 92%
    08:00 -4°C° 0.7 mm 10 m/s 737 mmHg 96%
    09:00 -4°C° 0.6 mm 10 m/s 736 mmHg 96%
    10:00 -3°C° 0.6 mm 10 m/s 735 mmHg 96%
    11:00 -3°C° 0.6 mm 9 m/s 734 mmHg 96%
    12:00 -2°C° 0.3 mm 8 m/s 734 mmHg 96%
    13:00 -1°C° 0.3 mm 7 m/s 733 mmHg 95%
    14:00 0°C° 0.3 mm 5 m/s 733 mmHg 95%
    15:00 -1°C° 0.2 mm 5 m/s 733 mmHg 96%
    16:00 -1°C° 0.2 mm 4 m/s 733 mmHg 97%
    17:00 0°C° 0.2 mm 3 m/s 733 mmHg 97%
    18:00 -1°C° 0.2 mm 4 m/s 734 mmHg 95%
    19:00 -2°C° 0.2 mm 4 m/s 734 mmHg 93%
    20:00 -2°C° 0.2 mm 4 m/s 734 mmHg 91%
    21:00 -2°C° 0 mm 4 m/s 734 mmHg 90%
    22:00 -2°C° 0 mm 5 m/s 734 mmHg 89%
    23:00 -4°C° 0 mm 5 m/s 734 mmHg 87%

    24 Février, Lundi

    Heure Température Précipitation Vent Pression Humidité
    00:00 -4°C° 0 mm 5 m/s 734 mmHg 88%
    01:00 -4°C° 0 mm 5 m/s 733 mmHg 89%
    02:00 -4°C° 0 mm 5 m/s 733 mmHg 89%
    03:00 -3°C° 0 mm 4 m/s 733 mmHg 90%
    04:00 -4°C° 0 mm 4 m/s 733 mmHg 91%
    05:00 -4°C° 0 mm 4 m/s 732 mmHg 91%
    06:00 -4°C° 0 mm 4 m/s 732 mmHg 91%
    07:00 -4°C° 0 mm 4 m/s 733 mmHg 90%
    08:00 -4°C° 0 mm 4 m/s 733 mmHg 89%
    09:00 -3°C° 0 mm 4 m/s 733 mmHg 88%
    10:00 -2°C° 0 mm 4 m/s 733 mmHg 87%
    11:00 -1°C° 0 mm 4 m/s 733 mmHg 85%
    12:00 -1°C° 0 mm 4 m/s 733 mmHg 84%
    13:00 -1°C° 0 mm 4 m/s 733 mmHg 82%
    14:00 0°C° 0 mm 4 m/s 733 mmHg 81%
    15:00 0°C° 0 mm 3 m/s 734 mmHg 85%
    16:00 0°C° 0 mm 3 m/s 734 mmHg 89%
    17:00 -1°C° 0 mm 3 m/s 734 mmHg 93%
    18:00 -1°C° 0 mm 3 m/s 735 mmHg 91%
    19:00 -1°C° 0 mm 3 m/s 736 mmHg 88%
    20:00 -3°C° 0 mm 4 m/s 736 mmHg 85%
    21:00 -3°C° 0 mm 4 m/s 737 mmHg 86%
    22:00 -3°C° 0 mm 4 m/s 737 mmHg 86%
    23:00 -3°C° 0 mm 4 m/s 738 mmHg 86%

    25 Février, Mardi

    Heure Température Précipitation Vent Pression Humidité
    00:00 -4°C° 0 mm 4 m/s 738 mmHg 84%
    01:00 -4°C° 0 mm 4 m/s 739 mmHg 83%
    02:00 -4°C° 0 mm 4 m/s 739 mmHg 81%
    03:00 -4°C° 0 mm 4 m/s 740 mmHg 81%
    04:00 -4°C° 0 mm 4 m/s 740 mmHg 81%
    05:00 -5°C° 0 mm 4 m/s 741 mmHg 80%
    06:00 -5°C° 0 mm 4 m/s 742 mmHg 80%
    07:00 -5°C° 0 mm 4 m/s 742 mmHg 79%
    08:00 -5°C° 0 mm 4 m/s 743 mmHg 79%
    09:00 -4°C° 0 mm 4 m/s 743 mmHg 75%
    10:00 -3°C° 0 mm 4 m/s 743 mmHg 70%
    11:00 -3°C° 0 mm 4 m/s 744 mmHg 66%
    12:00 -2°C° 0 mm 4 m/s 744 mmHg 64%
    13:00 -1°C° 0 mm 3 m/s 744 mmHg 63%
    14:00 -1°C° 0 mm 3 m/s 744 mmHg 61%
    15:00 -1°C° 0 mm 3 m/s 744 mmHg 64%
    16:00 -2°C° 0 mm 3 m/s 744 mmHg 68%
    17:00 -2°C° 0 mm 2 m/s 743 mmHg 71%
    18:00 -4°C° 0 mm 3 m/s 744 mmHg 72%
    19:00 -4°C° 0 mm 3 m/s 744 mmHg 72%
    20:00 -4°C° 0 mm 4 m/s 744 mmHg 73%
    21:00 -4°C° 0 mm 4 m/s 744 mmHg 72%
    22:00 -5°C° 0 mm 5 m/s 743 mmHg 71%
    23:00 -5°C° 0 mm 5 m/s 743 mmHg 70%

    26 Février, Mercredi

    Heure Température Précipitation Vent Pression Humidité
    00:00 -5°C° 0 mm 5 m/s 743 mmHg 70%
    01:00 -5°C° 0 mm 6 m/s 742 mmHg 70%
    02:00 -4°C° 0 mm 6 m/s 742 mmHg 70%
    03:00 -4°C° 0 mm 6 m/s 742 mmHg 72%
    04:00 -4°C° 0 mm 6 m/s 741 mmHg 74%
    05:00 -4°C° 0 mm 6 m/s 741 mmHg 75%
    06:00 -4°C° 0 mm 6 m/s 741 mmHg 77%
    07:00 -4°C° 0 mm 6 m/s 741 mmHg 78%
    08:00 -4°C° 0 mm 6 m/s 741 mmHg 79%
    09:00 -3°C° 0 mm 6 m/s 741 mmHg 77%
    10:00 -3°C° 0 mm 6 m/s 740 mmHg 74%
    11:00 -2°C° 0 mm 6 m/s 740 mmHg 71%
    12:00 -2°C° 0 mm 6 m/s 740 mmHg 71%
    13:00 -1°C° 0 mm 7 m/s 740 mmHg 70%
    14:00 0°C° 0 mm 7 m/s 739 mmHg 69%
    15:00 -1°C° 0 mm 7 m/s 739 mmHg 72%
    16:00 -1°C° 0 mm 7 m/s 739 mmHg 74%
    17:00 -1°C° 0 mm 6 m/s 738 mmHg 77%
    18:00 -2°C° 0 mm 7 m/s 738 mmHg 81%
    19:00 -2°C° 0 mm 7 m/s 738 mmHg 86%
    20:00 -2°C° 0 mm 7 m/s 738 mmHg 91%
    21:00 -2°C° 0.2 mm 8 m/s 738 mmHg 92%
    22:00 -4°C° 0.2 mm 8 m/s 737 mmHg 93%
    23:00 -4°C° 0.2 mm 8 m/s 737 mmHg 94%
    Voir plus